Time,TemperatureF,DewpointF,PressureIn,WindDirection,WindDirectionDegrees,WindSpeedMPH,WindSpeedGustMPH,Humidity,HourlyPrecipIn,Conditions,Clouds,dailyrainin,SolarRadiationWatts/m^2,SoftwareType,DateUTC
2013-06-16 00:01:00,56.0,50.0,-100.00,NNE,28,1.0,12.0,79,0.00,,,0.00,0.000000,,2013-06-16 07:01:00,
2013-06-16 00:33:00,56.0,50.0,-100.00,NNE,28,1.0,12.0,79,0.00,,,0.00,0.000000,,2013-06-16 07:33:00,
2013-06-16 00:43:00,56.0,50.0,-100.00,NNE,28,1.0,12.0,79,0.00,,,0.00,0.000000,,2013-06-16 07:43:00,
2013-06-16 00:53:00,56.0,50.0,-100.00,NNE,28,1.0,12.0,79,0.00,,,0.00,0.000000,,2013-06-16 07:53:00,
2013-06-16 01:01:00,57.0,53.0,-100.00,East,96,1.0,4.0,85,0.00,,,0.00,0.000000,,2013-06-16 08:01:00,
2013-06-16 01:22:00,57.0,53.0,-100.00,East,96,1.0,4.0,85,0.00,,,0.00,0.000000,,2013-06-16 08:22:00,
2013-06-16 01:34:00,57.0,53.0,-100.00,East,96,1.0,4.0,85,0.00,,,0.00,0.000000,,2013-06-16 08:34:00,
2013-06-16 01:43:00,57.0,53.0,-100.00,East,96,1.0,4.0,85,0.00,,,0.00,0.000000,,2013-06-16 08:43:00,
2013-06-16 01:54:00,57.0,53.0,-100.00,East,96,1.0,4.0,85,0.00,,,0.00,0.000000,,2013-06-16 08:54:00,
2013-06-16 02:01:00,53.0,50.0,-100.00,SSE,167,1.0,4.0,88,0.00,,,0.00,0.000000,,2013-06-16 09:01:00,
2013-06-16 02:33:00,53.0,50.0,-100.00,SSE,167,1.0,4.0,88,0.00,,,0.00,0.000000,,2013-06-16 09:33:00,
2013-06-16 02:43:00,53.0,50.0,-100.00,SSE,167,1.0,4.0,88,0.00,,,0.00,0.000000,,2013-06-16 09:43:00,
2013-06-16 02:52:00,53.0,50.0,-100.00,SSE,167,1.0,4.0,88,0.00,,,0.00,0.000000,,2013-06-16 09:52:00,
2013-06-16 03:01:00,52.0,49.0,-100.00,ESE,109,0.0,8.0,88,0.00,,,0.00,0.000000,,2013-06-16 10:01:00,
2013-06-16 03:22:00,52.0,49.0,-100.00,ESE,109,0.0,8.0,88,0.00,,,0.00,0.000000,,2013-06-16 10:22:00,
2013-06-16 03:33:00,52.0,49.0,-100.00,ESE,109,0.0,8.0,88,0.00,,,0.00,0.000000,,2013-06-16 10:33:00,
2013-06-16 03:43:00,52.0,49.0,-100.00,ESE,109,0.0,8.0,88,0.00,,,0.00,0.000000,,2013-06-16 10:43:00,
2013-06-16 03:53:00,52.0,49.0,-100.00,ESE,109,0.0,8.0,88,0.00,,,0.00,0.000000,,2013-06-16 10:53:00,
2013-06-16 04:01:00,51.0,50.0,-100.00,SE,139,3.0,5.0,98,0.00,,,0.00,0.000000,,2013-06-16 11:01:00,
2013-06-16 04:34:00,51.0,50.0,-100.00,SE,139,3.0,5.0,98,0.00,,,0.00,0.000000,,2013-06-16 11:34:00,
2013-06-16 04:43:00,51.0,50.0,-100.00,SE,139,3.0,5.0,98,0.00,,,0.00,0.000000,,2013-06-16 11:43:00,
2013-06-16 04:53:00,51.0,50.0,-100.00,SE,139,3.0,5.0,98,0.00,,,0.00,0.000000,,2013-06-16 11:53:00,
2013-06-16 05:01:00,50.0,50.0,-100.00,SE,131,4.0,8.0,100,0.00,,,0.00,0.000000,,2013-06-16 12:01:00,
2013-06-16 05:22:00,50.0,50.0,-100.00,SE,131,4.0,8.0,100,0.00,,,0.00,0.000000,,2013-06-16 12:22:00,
2013-06-16 05:33:00,50.0,50.0,-100.00,SE,131,4.0,8.0,100,0.00,,,0.00,0.000000,,2013-06-16 12:33:00,
2013-06-16 05:43:00,50.0,50.0,-100.00,SE,131,4.0,8.0,100,0.00,,,0.00,0.000000,,2013-06-16 12:43:00,
2013-06-16 05:53:00,50.0,50.0,-100.00,SE,131,4.0,8.0,100,0.00,,,0.00,0.000000,,2013-06-16 12:53:00,
2013-06-16 06:01:00,47.0,47.0,-100.00,SSE,156,3.0,6.0,100,0.00,,,0.00,0.000000,,2013-06-16 13:01:00,
2013-06-16 06:34:00,47.0,47.0,-100.00,SSE,156,3.0,6.0,100,0.00,,,0.00,0.000000,,2013-06-16 13:34:00,
2013-06-16 06:43:00,47.0,47.0,-100.00,SSE,156,3.0,6.0,100,0.00,,,0.00,0.000000,,2013-06-16 13:43:00,
2013-06-16 06:53:00,47.0,47.0,-100.00,SSE,156,3.0,6.0,100,0.00,,,0.00,0.000000,,2013-06-16 13:53:00,
2013-06-16 07:01:00,47.0,47.0,-100.00,SE,136,2.0,8.0,100,0.00,,,0.00,6.000000,,2013-06-16 14:01:00,
2013-06-16 07:22:00,47.0,47.0,-100.00,SE,136,2.0,8.0,100,0.00,,,0.00,6.000000,,2013-06-16 14:22:00,
2013-06-16 07:34:00,47.0,47.0,-100.00,SE,136,2.0,8.0,100,0.00,,,0.00,6.000000,,2013-06-16 14:34:00,
2013-06-16 07:43:00,47.0,47.0,-100.00,SE,136,2.0,8.0,100,0.00,,,0.00,6.000000,,2013-06-16 14:43:00,
2013-06-16 07:52:00,47.0,47.0,-100.00,SE,136,2.0,8.0,100,0.00,,,0.00,6.000000,,2013-06-16 14:52:00,
2013-06-16 08:01:00,49.0,49.0,-100.00,SE,127,1.0,5.0,100,0.00,,,0.00,48.000000,,2013-06-16 15:01:00,
2013-06-16 08:34:00,49.0,49.0,-100.00,SE,127,1.0,5.0,100,0.00,,,0.00,48.000000,,2013-06-16 15:34:00,
2013-06-16 08:43:00,49.0,49.0,-100.00,SE,127,1.0,5.0,100,0.00,,,0.00,48.000000,,2013-06-16 15:43:00,
2013-06-16 08:52:00,49.0,49.0,-100.00,SE,127,1.0,5.0,100,0.00,,,0.00,48.000000,,2013-06-16 15:52:00,
2013-06-16 09:01:00,50.0,50.0,-100.00,ENE,78,1.0,5.0,100,0.00,,,0.00,133.000000,,2013-06-16 16:01:00,
2013-06-16 09:23:00,50.0,50.0,-100.00,ENE,78,1.0,5.0,100,0.00,,,0.00,133.000000,,2013-06-16 16:23:00,
2013-06-16 09:33:00,50.0,50.0,-100.00,ENE,78,1.0,5.0,100,0.00,,,0.00,133.000000,,2013-06-16 16:33:00,
2013-06-16 09:43:00,50.0,50.0,-100.00,ENE,78,1.0,5.0,100,0.00,,,0.00,133.000000,,2013-06-16 16:43:00,
2013-06-16 09:53:00,50.0,50.0,-100.00,ENE,78,1.0,5.0,100,0.00,,,0.00,133.000000,,2013-06-16 16:53:00,
2013-06-16 10:01:00,50.0,50.0,-100.00,NNE,23,2.0,6.0,100,0.00,,,0.00,164.000000,,2013-06-16 17:01:00,
2013-06-16 10:34:00,50.0,50.0,-100.00,NNE,23,2.0,6.0,100,0.00,,,0.00,164.000000,,2013-06-16 17:34:00,
2013-06-16 10:43:00,50.0,50.0,-100.00,NNE,23,2.0,6.0,100,0.00,,,0.00,164.000000,,2013-06-16 17:43:00,
2013-06-16 10:53:00,50.0,50.0,-100.00,NNE,23,2.0,6.0,100,0.00,,,0.00,164.000000,,2013-06-16 17:53:00,
2013-06-16 11:01:00,49.0,49.0,-100.00,SSE,159,2.0,5.0,100,0.00,,,0.00,226.000000,,2013-06-16 18:01:00,
2013-06-16 11:34:00,49.0,49.0,-100.00,SSE,159,2.0,5.0,100,0.00,,,0.00,226.000000,,2013-06-16 18:34:00,
2013-06-16 12:01:00,51.0,51.0,-100.00,SSW,205,2.0,7.0,100,0.00,,,0.00,307.000000,,2013-06-16 19:01:00,
2013-06-16 12:34:00,51.0,51.0,-100.00,SSW,205,2.0,7.0,100,0.00,,,0.00,307.000000,,2013-06-16 19:34:00,
2013-06-16 12:43:00,51.0,51.0,-100.00,SSW,205,2.0,7.0,100,0.00,,,0.00,307.000000,,2013-06-16 19:43:00,
2013-06-16 12:53:00,51.0,51.0,-100.00,SSW,205,2.0,7.0,100,0.00,,,0.00,307.000000,,2013-06-16 19:53:00,
2013-06-16 13:01:00,50.0,50.0,-100.00,SW,225,5.0,12.0,99,0.00,,,0.00,381.000000,,2013-06-16 20:01:00,
2013-06-16 14:01:00,58.0,50.0,-100.00,WSW,238,4.0,12.0,76,-99.99,,,-99.99,708.000000,,2013-06-16 21:01:00,
2013-06-16 14:22:00,58.0,50.0,-100.00,WSW,238,4.0,12.0,76,-99.99,,,-99.99,708.000000,,2013-06-16 21:22:00,
2013-06-16 14:33:00,58.0,50.0,-100.00,WSW,238,4.0,12.0,76,-99.99,,,-99.99,708.000000,,2013-06-16 21:33:00,
2013-06-16 14:42:00,58.0,50.0,-100.00,WSW,238,4.0,12.0,76,-99.99,,,-99.99,708.000000,,2013-06-16 21:42:00,
2013-06-16 14:53:00,58.0,50.0,-100.00,WSW,238,4.0,12.0,76,-99.99,,,-99.99,708.000000,,2013-06-16 21:53:00,
2013-06-16 15:01:00,61.0,50.0,-100.00,West,266,7.0,12.0,68,0.00,,,0.00,1019.000000,,2013-06-16 22:01:00,
2013-06-16 15:22:00,61.0,50.0,-100.00,West,266,7.0,12.0,68,0.00,,,0.00,1019.000000,,2013-06-16 22:22:00,
2013-06-16 15:32:00,61.0,50.0,-100.00,West,266,7.0,12.0,68,0.00,,,0.00,1019.000000,,2013-06-16 22:32:00,
2013-06-16 15:42:00,61.0,50.0,-100.00,West,266,7.0,12.0,68,0.00,,,0.00,1019.000000,,2013-06-16 22:42:00,
2013-06-16 15:52:00,61.0,50.0,-100.00,West,266,7.0,12.0,68,0.00,,,0.00,1019.000000,,2013-06-16 22:52:00,
2013-06-16 16:01:00,61.0,50.0,-100.00,West,275,7.0,13.0,68,0.00,,,0.00,490.000000,,2013-06-16 23:01:00,
2013-06-16 16:22:00,61.0,50.0,-100.00,West,275,7.0,13.0,68,0.00,,,0.00,490.000000,,2013-06-16 23:22:00,
2013-06-16 16:32:00,61.0,50.0,-100.00,West,275,7.0,13.0,68,0.00,,,0.00,490.000000,,2013-06-16 23:32:00,
2013-06-16 16:42:00,61.0,50.0,-100.00,West,275,7.0,13.0,68,0.00,,,0.00,490.000000,,2013-06-16 23:42:00,
2013-06-16 16:52:00,61.0,50.0,-100.00,West,275,7.0,13.0,68,0.00,,,0.00,490.000000,,2013-06-16 23:52:00,
2013-06-16 17:01:00,61.0,48.0,-100.00,WNW,282,8.0,21.0,62,0.00,,,0.00,913.000000,,2013-06-17 00:01:00,
2013-06-16 17:22:00,61.0,48.0,-100.00,WNW,282,8.0,21.0,62,0.00,,,0.00,913.000000,,2013-06-17 00:22:00,
2013-06-16 17:32:00,61.0,48.0,-100.00,WNW,282,8.0,21.0,62,0.00,,,0.00,913.000000,,2013-06-17 00:32:00,
2013-06-16 17:43:00,61.0,48.0,-100.00,WNW,282,8.0,21.0,62,0.00,,,0.00,913.000000,,2013-06-17 00:43:00,
2013-06-16 17:52:00,61.0,48.0,-100.00,WNW,282,8.0,21.0,62,0.00,,,0.00,913.000000,,2013-06-17 00:52:00,
2013-06-16 18:01:00,60.0,47.0,-100.00,West,269,8.0,17.0,62,0.00,,,0.00,592.000000,,2013-06-17 01:01:00,
2013-06-16 18:22:00,60.0,47.0,-100.00,West,269,8.0,17.0,62,0.00,,,0.00,592.000000,,2013-06-17 01:22:00,
2013-06-16 18:32:00,60.0,47.0,-100.00,West,269,8.0,17.0,62,0.00,,,0.00,592.000000,,2013-06-17 01:32:00,
2013-06-16 18:43:00,60.0,47.0,-100.00,West,269,8.0,17.0,62,0.00,,,0.00,592.000000,,2013-06-17 01:43:00,
2013-06-16 18:53:00,60.0,47.0,-100.00,West,269,8.0,17.0,62,0.00,,,0.00,592.000000,,2013-06-17 01:53:00,
2013-06-16 19:01:00,57.0,48.0,-100.00,West,275,11.0,18.0,72,0.00,,,0.00,377.000000,,2013-06-17 02:01:00,
2013-06-16 19:22:00,57.0,48.0,-100.00,West,275,11.0,18.0,72,0.00,,,0.00,377.000000,,2013-06-17 02:22:00,
2013-06-16 19:34:00,57.0,48.0,-100.00,West,275,11.0,18.0,72,0.00,,,0.00,377.000000,,2013-06-17 02:34:00,
2013-06-16 19:43:00,57.0,48.0,-100.00,West,275,11.0,18.0,72,0.00,,,0.00,377.000000,,2013-06-17 02:43:00,
2013-06-16 19:53:00,57.0,48.0,-100.00,West,275,11.0,18.0,72,0.00,,,0.00,377.000000,,2013-06-17 02:53:00,
2013-06-16 20:01:00,60.0,49.0,-100.00,NW,305,6.0,16.0,66,0.00,,,0.00,371.000000,,2013-06-17 03:01:00,
2013-06-16 20:33:00,60.0,49.0,-100.00,NW,305,6.0,16.0,66,0.00,,,0.00,371.000000,,2013-06-17 03:33:00,
2013-06-16 20:44:00,60.0,49.0,-100.00,NW,305,6.0,16.0,66,0.00,,,0.00,371.000000,,2013-06-17 03:44:00,
2013-06-16 20:54:00,60.0,49.0,-100.00,NW,305,6.0,16.0,66,0.00,,,0.00,371.000000,,2013-06-17 03:54:00,
2013-06-16 21:01:00,58.0,50.0,-100.00,West,278,6.0,11.0,76,0.00,,,0.00,205.000000,,2013-06-17 04:01:00,
2013-06-16 21:34:00,58.0,50.0,-100.00,West,278,6.0,11.0,76,0.00,,,0.00,205.000000,,2013-06-17 04:34:00,
2013-06-16 21:43:00,58.0,50.0,-100.00,West,278,6.0,11.0,76,0.00,,,0.00,205.000000,,2013-06-17 04:43:00,
2013-06-16 21:53:00,58.0,50.0,-100.00,West,278,6.0,11.0,76,0.00,,,0.00,205.000000,,2013-06-17 04:53:00,
2013-06-16 22:01:00,55.0,48.0,-100.00,WSW,244,8.0,10.0,77,0.00,,,0.00,75.000000,,2013-06-17 05:01:00,
2013-06-16 22:33:00,55.0,48.0,-100.00,WSW,244,8.0,10.0,77,0.00,,,0.00,75.000000,,2013-06-17 05:33:00,
2013-06-16 22:44:00,55.0,48.0,-100.00,WSW,244,8.0,10.0,77,0.00,,,0.00,75.000000,,2013-06-17 05:44:00,
2013-06-16 22:53:00,55.0,48.0,-100.00,WSW,244,8.0,10.0,77,0.00,,,0.00,75.000000,,2013-06-17 05:53:00,
2013-06-16 23:01:00,50.0,46.0,-100.00,SW,232,8.0,13.0,86,0.00,,,0.00,1.000000,,2013-06-17 06:01:00,
2013-06-16 23:33:00,50.0,46.0,-100.00,SW,232,8.0,13.0,86,0.00,,,0.00,1.000000,,2013-06-17 06:33:00,
2013-06-16 23:43:00,50.0,46.0,-100.00,SW,232,8.0,13.0,86,0.00,,,0.00,1.000000,,2013-06-17 06:43:00,
2013-06-16 23:53:00,50.0,46.0,-100.00,SW,232,8.0,13.0,86,0.00,,,0.00,1.000000,,2013-06-17 06:53:00,